Terug naar catalogus

COSMOS 2327

ActiefMilitairPO
NORAD 23773·PAYLOAD·🇷🇺 Russia

Gelanceerd Jan 16, 1996 vanaf Plesetsk Cosmodrome

Loading…

Volgende Passages (komende 24 uur)

TLE

VersSource: Space-Track

Epoch: Sep 14, 2026, 17:16 UTC

1 23773U 96004A   26257.71946189  .00000044  00000-0  29694-4 0  9990
2 23773  82.9808  58.8826 0048059  10.4316   0.7124 13.74773675537938

Volg COSMOS 2327 in realtime met AllMySat

Download on the App Store